Simultaneous Nadir Overpasses (SNOs) Predictions

Prediction of SNOs between GOES-15 and NOAA-20 Satellite Orbit:

Table of predicted SNOs for the next 14.0 days since TLE Epoch: 11/11/2023
Index Date Time (GOES-15) GOES-15 Lat,Lon NOAA-20 Lat,Lon Distance(km) Time Diff (sec)
1 11/11/2023 21:26:56 0.09, 61.75 0.46, 59.97 202.16 80
2 11/12/2023 21:05:31 0.11, 61.75 -0.51, 64.50 313.74 80
3 11/14/2023 09:27:30 -0.08, 61.78 -0.64, 59.18 294.98 80
4 11/15/2023 09:11:25 -0.09, 61.78 0.35, 63.72 221.25 80
5 11/16/2023 21:33:15 0.07, 61.76 0.79, 58.44 378.35 80
6 11/17/2023 21:11:50 0.08, 61.78 -0.20, 62.97 136.51 80
7 11/19/2023 09:33:47 -0.05, 61.83 -1.00, 57.66 475.17 80
8 11/20/2023 09:17:43 -0.06, 61.84 -0.01, 62.20 40.54 80
9 11/22/2023 21:20:48 0.05, 61.82 0.15, 61.45 43.08 80
10 11/23/2023 20:59:23 0.06, 61.84 -0.85, 65.98 471.71 80
